• In Hungary
  • List of Countries
  • For 7 days
  • Water Temperature
  • Satellite Maps
  • Weather Map
  • News
  • Weather Widgets
  • user-avatar
    Login

    Hourly Weather Ashdod

    Today, 21 October, Saturday

    Time Temperature Precipitation Wind Pressure Humidity
    00:00 +25°C° 0 mm 2 mps 761 mmHg 72%
    01:00 +25°C° 0 mm 2 mps 760 mmHg 74%
    02:00 +24°C° 0 mm 1 mps 760 mmHg 77%
    03:00 +24°C° 0 mm 1 mps 760 mmHg 78%
    04:00 +24°C° 0 mm 2 mps 760 mmHg 79%
    05:00 +24°C° 0 mm 2 mps 760 mmHg 80%
    06:00 +24°C° 0 mm 2 mps 760 mmHg 76%
    07:00 +25°C° 0 mm 2 mps 761 mmHg 72%
    08:00 +26°C° 0 mm 2 mps 761 mmHg 67%
    09:00 +27°C° 0 mm 3 mps 761 mmHg 62%
    10:00 +28°C° 0 mm 3 mps 761 mmHg 57%
    11:00 +29°C° 0 mm 3 mps 760 mmHg 52%
    12:00 +29°C° 0 mm 4 mps 760 mmHg 51%
    13:00 +29°C° 0 mm 4 mps 760 mmHg 51%
    14:00 +29°C° 0 mm 5 mps 759 mmHg 51%
    15:00 +28°C° 0 mm 4 mps 759 mmHg 54%
    16:00 +27°C° 0 mm 4 mps 759 mmHg 58%
    17:00 +26°C° 0 mm 4 mps 759 mmHg 61%
    18:00 +26°C° 0 mm 3 mps 759 mmHg 63%
    19:00 +26°C° 0 mm 3 mps 759 mmHg 65%
    20:00 +25°C° 0 mm 2 mps 760 mmHg 66%
    21:00 +25°C° 0 mm 2 mps 760 mmHg 68%
    22:00 +24°C° 0 mm 2 mps 760 mmHg 69%
    23:00 +24°C° 0 mm 1 mps 760 mmHg 71%

    Tomorrow, 22 October, Sunday

    Time Temperature Precipitation Wind Pressure Humidity
    00:00 +24°C° 0 mm 1 mps 759 mmHg 72%
    01:00 +23°C° 0 mm 1 mps 759 mmHg 74%
    02:00 +23°C° 0 mm 1 mps 759 mmHg 75%
    03:00 +22°C° 0 mm 1 mps 759 mmHg 77%
    04:00 +20°C° 0 mm 0 mps 759 mmHg 78%
    05:00 +20°C° 0 mm 0 mps 759 mmHg 79%
    06:00 +21°C° 0 mm 0 mps 759 mmHg 74%
    07:00 +22°C° 0 mm 0 mps 759 mmHg 69%
    08:00 +22°C° 0 mm 0 mps 760 mmHg 64%
    09:00 +26°C° 0 mm 1 mps 759 mmHg 58%
    10:00 +27°C° 0 mm 1 mps 759 mmHg 53%
    11:00 +28°C° 0 mm 2 mps 759 mmHg 47%
    12:00 +28°C° 0 mm 3 mps 759 mmHg 46%
    13:00 +28°C° 0 mm 3 mps 758 mmHg 45%
    14:00 +28°C° 0 mm 4 mps 758 mmHg 44%
    15:00 +28°C° 0 mm 4 mps 758 mmHg 48%
    16:00 +27°C° 0 mm 4 mps 758 mmHg 53%
    17:00 +26°C° 0 mm 3 mps 758 mmHg 57%
    18:00 +25°C° 0 mm 3 mps 758 mmHg 59%
    19:00 +25°C° 0 mm 2 mps 758 mmHg 61%
    20:00 +24°C° 0 mm 2 mps 758 mmHg 63%
    21:00 +24°C° 0 mm 2 mps 758 mmHg 64%
    22:00 +24°C° 0 mm 1 mps 758 mmHg 66%
    23:00 +23°C° 0 mm 1 mps 758 mmHg 67%

    Day after tomorrow, 23 October, Monday

    Time Temperature Precipitation Wind Pressure Humidity
    00:00 +23°C° 0 mm 1 mps 758 mmHg 69%
    01:00 +23°C° 0 mm 1 mps 758 mmHg 70%
    02:00 +22°C° 0 mm 1 mps 758 mmHg 71%
    03:00 +22°C° 0 mm 1 mps 758 mmHg 72%
    04:00 +21°C° 0 mm 1 mps 758 mmHg 73%
    05:00 +21°C° 0 mm 1 mps 757 mmHg 74%
    06:00 +20°C° 0 mm 0 mps 758 mmHg 69%
    07:00 +21°C° 0 mm 0 mps 758 mmHg 64%
    08:00 +22°C° 0 mm 0 mps 758 mmHg 59%
    09:00 +25°C° 0 mm 1 mps 758 mmHg 54%
    10:00 +26°C° 0 mm 1 mps 758 mmHg 49%
    11:00 +27°C° 0 mm 1 mps 758 mmHg 44%
    12:00 +28°C° 0 mm 2 mps 757 mmHg 44%
    13:00 +28°C° 0 mm 3 mps 757 mmHg 44%
    14:00 +28°C° 0 mm 3 mps 757 mmHg 44%
    15:00 +27°C° 0 mm 3 mps 757 mmHg 49%
    16:00 +27°C° 0 mm 3 mps 757 mmHg 53%
    17:00 +26°C° 0 mm 3 mps 757 mmHg 57%
    18:00 +25°C° 0 mm 3 mps 757 mmHg 60%
    19:00 +25°C° 0 mm 2 mps 757 mmHg 62%
    20:00 +24°C° 0 mm 2 mps 758 mmHg 64%
    21:00 +24°C° 0 mm 1 mps 758 mmHg 65%
    22:00 +24°C° 0 mm 1 mps 757 mmHg 67%
    23:00 +21°C° 0 mm 0 mps 757 mmHg 68%

    24 October, Tuesday

    Time Temperature Precipitation Wind Pressure Humidity
    00:00 +23°C° 0 mm 1 mps 757 mmHg 70%
    01:00 +22°C° 0 mm 1 mps 757 mmHg 72%
    02:00 +22°C° 0 mm 1 mps 757 mmHg 74%
    03:00 +22°C° 0 mm 1 mps 757 mmHg 75%
    04:00 +21°C° 0 mm 1 mps 757 mmHg 76%
    05:00 +21°C° 0 mm 1 mps 757 mmHg 77%
    06:00 +22°C° 0 mm 1 mps 758 mmHg 71%
    07:00 +23°C° 0 mm 1 mps 758 mmHg 64%
    08:00 +24°C° 0 mm 2 mps 758 mmHg 58%
    09:00 +25°C° 0 mm 1 mps 758 mmHg 51%
    10:00 +26°C° 0 mm 1 mps 758 mmHg 45%
    11:00 +27°C° 0 mm 1 mps 758 mmHg 38%
    12:00 +28°C° 0 mm 1 mps 757 mmHg 37%
    13:00 +28°C° 0 mm 2 mps 757 mmHg 36%
    14:00 +29°C° 0 mm 2 mps 757 mmHg 35%
    15:00 +28°C° 0 mm 2 mps 757 mmHg 40%
    16:00 +27°C° 0 mm 3 mps 757 mmHg 46%
    17:00 +26°C° 0 mm 3 mps 757 mmHg 51%
    18:00 +26°C° 0 mm 3 mps 757 mmHg 54%
    19:00 +25°C° 0 mm 2 mps 758 mmHg 58%
    20:00 +25°C° 0 mm 2 mps 758 mmHg 61%
    21:00 +25°C° 0 mm 2 mps 758 mmHg 61%
    22:00 +24°C° 0 mm 3 mps 758 mmHg 60%
    23:00 +24°C° 0 mm 3 mps 758 mmHg 60%

    25 October, Wednesday

    Time Temperature Precipitation Wind Pressure Humidity
    00:00 +24°C° 0 mm 3 mps 758 mmHg 57%
    01:00 +24°C° 0 mm 2 mps 758 mmHg 54%
    02:00 +24°C° 0 mm 2 mps 758 mmHg 52%
    03:00 +24°C° 0 mm 2 mps 758 mmHg 51%
    04:00 +23°C° 0 mm 2 mps 759 mmHg 49%
    05:00 +23°C° 0 mm 2 mps 759 mmHg 48%
    06:00 +24°C° 0 mm 2 mps 759 mmHg 45%
    07:00 +26°C° 0 mm 2 mps 759 mmHg 41%
    08:00 +27°C° 0 mm 3 mps 760 mmHg 37%
    09:00 +28°C° 0 mm 2 mps 760 mmHg 34%
    10:00 +29°C° 0 mm 2 mps 760 mmHg 32%
    11:00 +30°C° 0 mm 2 mps 760 mmHg 29%
    12:00 +30°C° 0 mm 2 mps 759 mmHg 28%
    13:00 +30°C° 0 mm 2 mps 759 mmHg 27%
    14:00 +31°C° 0 mm 3 mps 759 mmHg 26%
    15:00 +30°C° 0 mm 2 mps 759 mmHg 29%
    16:00 +29°C° 0 mm 2 mps 759 mmHg 32%
    17:00 +28°C° 0 mm 2 mps 759 mmHg 34%
    18:00 +28°C° 0 mm 2 mps 760 mmHg 36%
    19:00 +27°C° 0 mm 2 mps 760 mmHg 37%
    20:00 +26°C° 0 mm 2 mps 761 mmHg 39%
    21:00 +26°C° 0 mm 2 mps 760 mmHg 37%
    22:00 +26°C° 0 mm 3 mps 760 mmHg 36%
    23:00 +26°C° 0 mm 3 mps 760 mmHg 34%

    26 October, Thursday

    Time Temperature Precipitation Wind Pressure Humidity
    00:00 +25°C° 0 mm 3 mps 760 mmHg 34%
    01:00 +25°C° 0 mm 3 mps 760 mmHg 33%
    02:00 +25°C° 0 mm 3 mps 760 mmHg 32%
    03:00 +25°C° 0 mm 3 mps 760 mmHg 32%
    04:00 +25°C° 0 mm 3 mps 760 mmHg 33%
    05:00 +24°C° 0 mm 3 mps 760 mmHg 33%
    06:00 +26°C° 0 mm 3 mps 760 mmHg 30%
    07:00 +27°C° 0 mm 3 mps 760 mmHg 28%
    08:00 +28°C° 0 mm 3 mps 760 mmHg 26%
    09:00 +29°C° 0 mm 3 mps 760 mmHg 23%
    10:00 +31°C° 0 mm 3 mps 760 mmHg 21%
    11:00 +32°C° 0 mm 2 mps 759 mmHg 18%
    12:00 +34°C° 0 mm 2 mps 759 mmHg 18%
    13:00 +33°C° 0 mm 1 mps 758 mmHg 17%
    14:00 +33°C° 0 mm 1 mps 757 mmHg 17%
    15:00 +32°C° 0 mm 1 mps 757 mmHg 18%
    16:00 +31°C° 0 mm 1 mps 757 mmHg 19%
    17:00 +30°C° 0 mm 1 mps 757 mmHg 21%
    18:00 +30°C° 0 mm 1 mps 757 mmHg 22%
    19:00 +29°C° 0 mm 1 mps 757 mmHg 22%
    20:00 +28°C° 0 mm 1 mps 758 mmHg 23%
    21:00 +28°C° 0 mm 2 mps 758 mmHg 24%
    22:00 +27°C° 0 mm 2 mps 758 mmHg 24%
    23:00 +27°C° 0 mm 3 mps 758 mmHg 24%
    Show more